[[{"header":{"parameterUnit":"m.s-1","parameterCategory":1,"la1":30.2991,"la2":30.254,"lo1":-89.0895,"lo2":-89.0444,"dy":0.0017,"dx":0.0017,"nx":28,"ny":28,"refTime":"2025-07-19T03:00:00:Z","depth":0,"parameterNumber":2,"parameterNumberName":"U-component_of_WINDS"},"data":[0,0,0,0,0,0,0,0,0,0,0,0,0,0,0,0,0,0,0,0,0,0,0,0,0,0,0,0,0,0,0,0,0,0,0,0,0,0,0,0,0,0,0,0,0,0,0,0,0,0,0,0,0,0,0,0,0,0,1.0872,1.0872,0,1.0908,1.0909,1.0909,1.0931,1.0931,1.0931,1.0931,1.097,1.0971,1.0972,0,0,0,0,0,0,0,0,0,0,0,0,0,1.0822,1.0823,1.0872,1.0872,1.0873,1.0908,1.0909,1.0909,1.0931,1.0931,1.0931,1.0931,1.097,1.0971,1.0972,0,0,0,0,0,0,0,0,0,0,0,0,0,1.085,1.0823,1.0872,1.0888,1.0889,1.0908,1.0909,1.0909,1.093,1.0931,1.0931,1.0931,1.0969,1.0971,1.0972,1.0978,0,0,1.0976,1.0977,0,0,0,0,0,0,0,0,1.0848,1.0852,1.0885,1.0887,1.0889,1.0915,1.0906,1.0933,1.093,1.0915,1.0931,1.0931,1.0952,1.0954,1.0961,1.098,1.0982,1.0977,1.0977,1.0978,1.0978,0,0,0,0,0,0,0,1.0846,1.085,1.0886,1.0885,1.0888,1.0893,1.0897,1.0911,1.0932,1.0916,1.0918,1.0922,1.0953,1.096,1.0962,1.0983,1.0976,1.0978,1.0979,1.0979,1.1009,1.1009,0,0,0,0,0,0,1.0842,1.0848,1.0885,1.0887,1.0868,1.0894,1.0899,1.0906,1.0932,1.0936,1.0922,1.0923,1.0957,1.096,1.0964,1.0973,1.0978,1.0979,1.098,1.1009,1.1009,1.1009,0,0,0,0,0,0,1.084,1.0845,1.0884,1.0868,1.0874,1.0895,1.0903,1.0907,1.0914,1.0936,1.094,1.0925,1.0957,1.0962,1.0974,1.0974,1.098,1.0981,1.1009,1.1009,1.1009,1.0991,0,0,0,0,0,0,1.0839,1.0844,1.0846,1.0868,1.0875,1.0893,1.0903,1.0908,1.0916,1.0918,1.094,1.0944,1.0958,1.0972,1.0976,1.0977,1.0982,1.1009,1.1009,1.1009,1.0992,1.099,1.0989,0,0,0,0,0,1.0837,1.084,1.0846,1.0851,1.0878,1.0893,1.0897,1.0912,1.0916,1.0919,1.0933,1.0943,1.0974,1.0973,1.0978,1.0979,1.1009,1.1009,1.1009,1.0992,1.0991,1.0989,0,0,0,0,0,0,1.0819,1.0844,1.085,1.0861,1.0875,1.0897,1.0901,1.091,1.0924,1.0925,1.0944,1.0948,1.0959,1.0971,1.0969,1.0986,1.0993,1.0993,1.0979,1.0977,1.0976,1.0973,1.0984,0,0,0,0,0,1.0816,1.0826,1.0847,1.0854,1.0861,1.0879,1.0887,1.0897,1.0913,1.0919,1.0934,1.0949,1.0962,1.097,1.0984,1.0994,1.0999,1.0997,1.0995,1.0994,1.0994,1.1001,1.1,1.1008,1.1008,1.1008,0,0,1.081,1.0825,1.083,1.0851,1.0863,1.0873,1.0884,1.0895,1.0903,1.0921,1.0934,1.0945,1.0963,1.0975,1.0981,1.0984,1.0993,1.0994,1.0993,1.0994,1.1,1.1,1.0999,1.1008,1.1008,1.1008,0,0,1.0804,1.0817,1.0824,1.0835,1.0853,1.0866,1.0867,1.0888,1.0896,1.0909,1.0923,1.0933,1.0955,1.0967,1.0976,1.0976,1.0985,1.0979,1.0973,1.0978,1.0978,1.0977,1.0977,1.0977,1.098,1.098,1.098,0,1.0795,1.0811,1.0826,1.0836,1.0845,1.0861,1.0869,1.0879,1.0901,1.0907,1.0911,1.0938,1.0952,1.0966,1.0966,1.0973,1.0976,1.0977,1.0977,1.0976,1.0976,1.0976,1.0976,1.0979,1.0979,1.0979,1.0979,0,1.0798,1.0809,1.0813,1.0832,1.0842,1.085,1.0868,1.0876,1.0885,1.0897,1.0911,1.0927,1.0944,1.0948,1.0958,1.0964,1.0966,1.0973,1.0979,1.0974,1.0974,1.0974,1.0978,1.0978,1.0978,1.0978,0,0,1.0782,1.081,1.0811,1.082,1.0841,1.085,1.086,1.0875,1.0882,1.0896,1.0905,1.0923,1.0929,1.094,1.0951,1.0956,1.0954,1.0963,1.0963,1.096,1.0962,1.0956,1.0956,1.0961,1.0961,1.0961,1.096,0,1.078,1.0797,1.0811,1.0824,1.0834,1.0849,1.0857,1.0871,1.0883,1.0894,1.0907,1.0919,1.0927,1.0933,1.0939,1.0953,1.0955,1.0953,1.097,1.097,1.0964,1.0956,1.095,1.0949,1.0961,1.0961,1.0961,0,1.0779,1.0792,1.0805,1.0825,1.083,1.0837,1.0852,1.0862,1.0879,1.0887,1.0898,1.091,1.0921,1.0927,1.0942,1.0941,1.0949,1.0957,1.0957,1.0959,1.0965,1.0958,1.0949,1.0948,1.0961,1.0961,1.0961,0,1.0766,1.0787,1.0797,1.0805,1.0828,1.0832,1.0842,1.0859,1.0867,1.0881,1.0887,1.0902,1.091,1.0922,1.0938,1.0941,1.0952,1.0959,1.096,1.0959,1.0961,1.0961,1.0953,1.0966,1.0966,1.0966,1.0966,0,1.0762,1.0769,1.0792,1.0798,1.0807,1.0823,1.0832,1.0843,1.0857,1.0867,1.0881,1.089,1.091,1.0921,1.0934,1.0945,1.0949,1.0956,1.0959,1.0954,1.0953,1.0959,1.096,1.0966,1.0966,1.0966,1.0966,0,1.0749,1.0764,1.0776,1.0797,1.0802,1.0808,1.0826,1.0833,1.0845,1.0857,1.086,1.088,1.0894,1.091,1.093,1.0938,1.0948,1.0953,1.0943,1.0944,1.0944,1.0944,1.094,1.094,1.0953,1.0953,1.0952,0,1.0745,1.0751,1.0772,1.0779,1.0788,1.0799,1.0808,1.0824,1.0833,1.0852,1.0857,1.0871,1.0884,1.0905,1.0921,1.0936,1.0942,1.0939,1.0944,1.0939,1.0942,1.0941,1.0942,1.0938,1.0938,1.0938,1.0937,0,1.0736,1.0744,1.0755,1.0769,1.0779,1.0791,1.0804,1.0809,1.0829,1.0837,1.0851,1.0861,1.088,1.0895,1.0912,1.0923,1.0933,1.0936,1.0937,1.0932,1.0925,1.0929,1.0939,1.0936,1.0936,1.0936,1.0936,1.0936,1.0728,1.0734,1.0749,1.0762,1.0773,1.0784,1.0792,1.0805,1.0817,1.0833,1.0843,1.0856,1.0873,1.0896,1.0907,1.0918,1.0922,1.0923,1.0924,1.0923,1.0922,1.0923,1.0921,1.0921,1.0921,1.0921,1.0921,0,1.072,1.0731,1.0742,1.0759,1.0769,1.0777,1.0792,1.08,1.0811,1.0825,1.0837,1.0853,1.0867,1.0884,1.09,1.0905,1.0911,1.0909,1.0909,1.0911,1.0918,1.0915,1.0904,1.0904,1.0904,1.0904,1.0904,1.0904,1.0717,1.0727,1.0736,1.0752,1.0763,1.0776,1.0784,1.0794,1.0806,1.0823,1.0834,1.0845,1.086,1.0877,1.089,1.0895,1.09,1.0897,1.0903,1.0909,1.091,1.0912,1.091,1.0898,1.0898,1.0895,1.0895,1.0895]},{"header":{"parameterUnit":"m.s-1","parameterCategory":1,"la1":30.2991,"la2":30.254,"lo1":-89.0895,"lo2":-89.0444,"dy":0.0017,"dx":0.0017,"nx":28,"ny":28,"refTime":"2025-07-19T03:00:00:Z","depth":0,"parameterNumber":3,"parameterNumberName":"V-component_of_WINDS"},"data":[0,0,0,0,0,0,0,0,0,0,0,0,0,0,0,0,0,0,0,0,0,0,0,0,0,0,0,0,0,0,0,0,0,0,0,0,0,0,0,0,0,0,0,0,0,0,0,0,0,0,0,0,0,0,0,0,0,0,1.34,1.34,0,1.3344,1.3343,1.3342,1.333,1.333,1.3331,1.3331,1.3272,1.327,1.3268,0,0,0,0,0,0,0,0,0,0,0,0,0,1.3497,1.3495,1.34,1.34,1.3399,1.3344,1.3343,1.3342,1.333,1.333,1.3331,1.3331,1.3272,1.327,1.3268,0,0,0,0,0,0,0,0,0,0,0,0,0,1.3449,1.3494,1.34,1.3386,1.3384,1.3344,1.3343,1.3342,1.333,1.333,1.3331,1.3331,1.3273,1.327,1.3267,1.3237,0,0,1.3258,1.3257,0,0,0,0,0,0,0,0,1.3452,1.3445,1.3389,1.3387,1.3385,1.3344,1.3355,1.3307,1.3329,1.335,1.3331,1.3332,1.3295,1.3291,1.3279,1.3234,1.3232,1.3258,1.3256,1.3255,1.3254,0,0,0,0,0,0,0,1.3455,1.3448,1.3378,1.3388,1.3386,1.3382,1.3376,1.3346,1.332,1.3349,1.3348,1.3341,1.3294,1.3281,1.3277,1.3231,1.3258,1.3256,1.3254,1.3253,1.3159,1.3158,0,0,0,0,0,0,1.3461,1.3451,1.338,1.3376,1.342,1.338,1.3373,1.3357,1.332,1.3315,1.3341,1.3341,1.3286,1.3281,1.3275,1.3237,1.3255,1.3252,1.3251,1.316,1.3159,1.3158,0,0,0,0,0,0,1.3463,1.3455,1.3382,1.3413,1.3404,1.3378,1.3359,1.3355,1.3342,1.3314,1.331,1.3332,1.3286,1.3279,1.3247,1.3235,1.3251,1.3248,1.316,1.3159,1.3158,1.3161,0,0,0,0,0,0,1.3466,1.3456,1.3444,1.3413,1.3402,1.3355,1.3359,1.3354,1.3338,1.3337,1.3305,1.3301,1.3286,1.3251,1.3244,1.3231,1.3246,1.3161,1.316,1.3159,1.3161,1.316,1.3158,0,0,0,0,0,1.3469,1.3446,1.3443,1.3435,1.3387,1.3354,1.3348,1.3332,1.3337,1.3325,1.3307,1.3302,1.3237,1.3248,1.3239,1.3226,1.3162,1.316,1.3159,1.3162,1.316,1.3158,0,0,0,0,0,0,1.3476,1.3442,1.3438,1.3405,1.3383,1.3352,1.3336,1.3331,1.3306,1.3307,1.3288,1.3281,1.325,1.3235,1.3247,1.3194,1.32,1.3196,1.3205,1.3203,1.3202,1.3206,1.3244,0,0,0,0,0,1.3474,1.345,1.3422,1.3395,1.3384,1.3362,1.3347,1.3338,1.3313,1.3304,1.3283,1.326,1.3235,1.3218,1.3193,1.316,1.3152,1.3146,1.3144,1.3143,1.314,1.3121,1.3118,1.3152,1.3152,1.3153,0,0,1.3468,1.3447,1.3433,1.3396,1.3377,1.3353,1.3354,1.3329,1.331,1.33,1.3268,1.3252,1.3225,1.3192,1.3176,1.3178,1.3129,1.3141,1.314,1.3138,1.3119,1.3116,1.3113,1.3151,1.3152,1.3152,0,0,1.3446,1.3428,1.3404,1.3385,1.3358,1.3343,1.3338,1.3308,1.3298,1.3266,1.3257,1.3235,1.3192,1.3173,1.3157,1.3129,1.3123,1.3121,1.3113,1.3094,1.3092,1.3089,1.3079,1.3075,1.3119,1.3119,1.3119,0,1.3443,1.3406,1.3392,1.3366,1.335,1.334,1.3315,1.3298,1.3264,1.3253,1.3256,1.3201,1.3182,1.3144,1.3138,1.3126,1.3118,1.3124,1.3093,1.3091,1.3088,1.3078,1.3074,1.3119,1.3119,1.3119,1.3119,0,1.3404,1.3379,1.3362,1.333,1.3312,1.3287,1.3268,1.3251,1.3244,1.3229,1.3197,1.3174,1.3144,1.3134,1.3126,1.3095,1.3097,1.3097,1.3102,1.3085,1.3075,1.3071,1.3119,1.3119,1.3119,1.3119,0,0,1.3383,1.3343,1.3337,1.3323,1.3292,1.3272,1.3247,1.3218,1.3205,1.3181,1.316,1.3124,1.3123,1.3106,1.3095,1.308,1.3059,1.3081,1.308,1.3077,1.3023,1.3023,1.3019,1.3055,1.3054,1.3054,1.3025,0,1.3357,1.3311,1.3298,1.326,1.3236,1.3227,1.3205,1.3184,1.317,1.3148,1.3132,1.3107,1.3109,1.3098,1.3082,1.3065,1.3047,1.3066,1.3034,1.3033,1.304,1.3014,1.3013,1.2988,1.3021,1.3021,1.302,0,1.3319,1.3296,1.3256,1.3229,1.3219,1.3199,1.3172,1.3151,1.3127,1.3118,1.3099,1.309,1.3063,1.3071,1.3033,1.3047,1.3033,1.3022,1.3021,1.3017,1.3025,1.3008,1.2979,1.2975,1.3014,1.3015,1.3015,0,1.3308,1.3267,1.3237,1.3225,1.3193,1.3179,1.3165,1.3141,1.3125,1.3102,1.3091,1.3065,1.305,1.303,1.3014,1.3021,1.2978,1.2984,1.2969,1.2969,1.296,1.296,1.2928,1.2952,1.2952,1.2952,1.2952,0,1.3279,1.3255,1.3232,1.3214,1.3186,1.3171,1.3144,1.3129,1.3109,1.3087,1.3078,1.3058,1.3039,1.3016,1.3004,1.2975,1.2968,1.296,1.2957,1.2961,1.2962,1.2951,1.2952,1.2951,1.2951,1.2951,1.2952,0,1.3261,1.3245,1.3212,1.3184,1.3177,1.3158,1.3134,1.3116,1.3102,1.3075,1.3068,1.3046,1.302,1.3002,1.2968,1.296,1.2928,1.2925,1.2936,1.2934,1.292,1.2922,1.2879,1.2872,1.2902,1.2901,1.2901,0,1.3244,1.3225,1.3195,1.3181,1.3167,1.3143,1.3127,1.3111,1.3095,1.3066,1.3052,1.3025,1.3002,1.296,1.294,1.2914,1.2911,1.2898,1.2907,1.2911,1.291,1.2911,1.2909,1.2896,1.2896,1.2895,1.2895,0,1.3214,1.3207,1.3184,1.3159,1.314,1.3119,1.3098,1.3087,1.3067,1.3049,1.3022,1.3005,1.297,1.2943,1.2916,1.2901,1.2895,1.2893,1.2888,1.2891,1.2898,1.2894,1.2931,1.2894,1.2894,1.2894,1.2894,1.2894,1.3195,1.3178,1.3155,1.313,1.3113,1.3094,1.3076,1.306,1.3037,1.3008,1.3001,1.2972,1.2949,1.2911,1.2896,1.2873,1.2875,1.2868,1.2866,1.2864,1.2864,1.2902,1.2868,1.2868,1.2868,1.2868,1.2868,0,1.3165,1.315,1.3127,1.3099,1.3079,1.3076,1.3053,1.3037,1.3012,1.2991,1.2969,1.2938,1.2912,1.2892,1.2865,1.2851,1.2847,1.2844,1.2845,1.2841,1.2864,1.2871,1.2848,1.2848,1.2848,1.2848,1.2848,1.2848,1.3147,1.3118,1.3108,1.3071,1.3056,1.3028,1.3015,1.2998,1.2981,1.2947,1.2926,1.2913,1.2892,1.2864,1.284,1.2834,1.2825,1.2822,1.2816,1.2838,1.284,1.2842,1.2848,1.282,1.282,1.2795,1.2795,1.2794]}]]